Location: Flitcham
(52.8000°N, 0.5667°E)
Time: 13:09:09
(UTC+00:00)

Cosmos 1271 Rocket - Pass Details

Date: 15 May 2026
Orbit: 421 x 447 km, 81.2° (Epoch: 11 June)

Event Time Altitude Azimuth Distance (km) Brightness Sun altitude
Exits shadow 22:07:34 19° 106° (ESE) 1,114 4.0 -14.5°
Maximum altitude 22:08:10 20° 91° (E) 1,082 4.1 -14.6°
Drops below altitude 10° 22:10:42 10° 42° (NE) 1,555 5.4 -14.7°
Sets 22:13:07 0° 25° (NNE) 2,424 6.7 -14.9°
